DEAR-5

Last updated on Fri Dec 19 2025 00:02:10 GMT+0000 (Coordinated Universal Time)

1 67070U 25296B 25352.62738063 .00005286 00000+0 27257-3 0 9992 2 67070 41.3553 67.9796 0016141 67.8036 292.4497 15.16878703 845
UTC large
Height (km)
Speed (km/s)
/
Latitude / Longitude
Inclination (degrees)
Orbital Period (minutes)
Azimuth
Elevation
Range (km)
Doppler Factor

Next 0 passes for location: London (51.5072 / 0.1276)

Sorry there are no passes over London.